Location: ?????
(38.2579°N, 22.9711°E)
Time: 05:48:00
(UTC+00:00)

DMSP B5D1-3 - Pass Details

Date: 13 December 2025
Orbit: 758 x 773 km, 98.5° (Epoch: 20 January)

Event Time Altitude Azimuth Distance (km) Brightness Sun altitude
Exits shadow 17:14:54 66° 67° (ENE) 828 4.3 -24.0°
Maximum altitude 17:15:20 70° 102° (ESE) 807 4.3 -24.1°
Drops below altitude 10° 17:20:20 10° 186° (S) 2,280 7.1 -25.1°
Sets 17:22:37 0° 189° (S) 3,200 8.0 -25.5°
